Location: Unspecified
(0.0000°N, 0.0000°E)
Time: 10:52:40
(UTC+02:00)

SWIFT - Visible Passes

Search period start: 26 May 2024 00:00
Search period end: 05 June 2024 00:00
Orbit: 503 x 516 km, 20.6° (Epoch: 24 May)

Date Brightness Start Highest point End Pass type
(mag) Time Alt. Az. Time Alt. Az. Time Alt. Az.
26 May 4.9 05:58:54 12° SE 05:58:54 12° SE 05:59:29 10° SE visible
26 May 3.3 21:05:22 10° W 21:09:00 33° SSW 21:10:27 25° SSE visible
27 May 2.4 07:14:33 13° WSW 07:17:56 61° SSE 07:21:50 10° ENE visible
27 May 3.6 20:45:09 10° W 20:48:38 28° SSW 20:51:21 14° SSE visible
28 May 2.1 06:55:26 25° WSW 06:57:34 73° SSE 07:01:30 10° ENE visible
28 May 3.8 20:24:56 10° WSW 20:28:15 25° SSW 20:31:35 10° SE visible
29 May 2.0 06:36:16 52° WSW 06:37:09 87° SSE 06:41:06 10° ENE visible
30 May 2.2 06:17:03 72° NE 06:17:03 72° NE 06:20:39 10° ENE visible
31 May 3.7 05:57:47 34° NE 05:57:47 34° NE 06:00:10 10° ENE visible
01 Jun 4.8 05:38:28 18° NE 05:38:28 18° NE 05:39:36 10° ENE visible
01 Jun 4.4 07:14:20 10° NW 07:16:44 15° NNW 07:19:07 10° NNE visible
02 Jun 4.6 06:54:11 10° NW 06:56:13 14° NNW 06:58:15 10° NNE visible
03 Jun 4.6 06:34:22 11° NW 06:35:41 12° NNW 06:37:17 10° N visible
04 Jun 4.8 06:14:52 11° NNW 06:15:07 11° NNW 06:16:03 10° N visible
